SV1BYK-2 Weather Reports


Display with metric or nautical units.
time (UTC)temp
F
wind
direction
speed
MPH
gust
MPH
rain 1hr
in
rain 24hr
in
rain mn
in
humidity
%
barometer
mb
20260831114716 95 269 3.0 9.0 0.00 0.00 0.00 34 1008.1
20260831113604 95 123 2.0 7.0 0.00 0.00 0.00 34 1008.3
20260831112916 96 82 2.0 7.0 0.00 0.00 0.00 33 1008.4
20260831112013 94 87 2.0 13.0 0.00 0.00 0.00 34 1008.5
20260831110903 94 94 2.0 11.0 0.00 0.00 0.00 34 1008.4
20260831110213 93 108 4.0 8.0 0.00 0.00 0.00 35 1008.4
20260831105614 94 154 2.0 7.0 0.00 0.00 0.00 34 1008.7
20260831104717 94 238 2.0 7.0 0.00 0.00 0.00 34 1008.6
20260831103604 94 223 2.0 6.0 0.00 0.00 0.00 34 1008.8
20260831102916 94 68 2.0 9.0 0.00 0.00 0.00 35 1008.9
20260831101804 93 212 3.0 8.0 0.00 0.00 0.00 35 1009.0
20260831100903 93 42 3.0 11.0 0.00 0.00 0.00 36 1008.9
20260831100004 93 82 3.0 9.0 0.00 0.00 0.00 36 1009.0
20260831095615 93 113 2.0 9.0 0.00 0.00 0.00 36 1009.1
20260831094503 92 290 3.0 6.0 0.00 0.00 0.00 37 1009.2
20260831093603 92 31 2.0 8.0 0.00 0.00 0.00 36 1009.4
20260831092703 93 321 2.0 6.0 0.00 0.00 0.00 37 1009.3
20260831091803 92 239 2.0 4.0 0.00 0.00 0.00 37 1009.4
20260831091117 92 247 1.0 6.0 0.00 0.00 0.00 38 1009.2
20260831090004 92 274 1.0 4.0 0.00 0.00 0.00 37 1009.3
20260831085616 92 279 3.0 4.0 0.00 0.00 0.00 37 1009.6
20260831084503 91 217 2.0 6.0 0.00 0.00 0.00 39 1009.9
20260831083815 91 264 2.0 4.0 0.00 0.00 0.00 39 1009.7
20260831082918 90 259 2.0 6.0 0.00 0.00 0.00 39 1009.6
20260831081803 90 226 2.0 4.0 0.00 0.00 0.00 40 1009.6
20260831081117 90 212 2.0 4.0 0.00 0.00 0.00 40 1009.7
20260831080215 89 238 2.0 7.0 0.00 0.00 0.00 41 1009.7
20260831075616 88 261 4.0 7.0 0.00 0.00 0.00 42 1009.9
20260831074504 88 274 2.0 9.0 0.00 0.00 0.00 42 1009.6
20260831073604 88 124 3.0 9.0 0.00 0.00 0.00 43 1009.5
20260831072703 88 232 2.0 6.0 0.00 0.00 0.00 43 1009.5
20260831071803 88 248 2.0 6.0 0.00 0.00 0.00 43 1009.5
20260831071113 86 261 2.0 6.0 0.00 0.00 0.00 45 1009.6
20260831070215 87 236 2.0 6.0 0.00 0.00 0.00 44 1009.4
20260831065403 86 279 2.0 6.0 0.00 0.00 0.00 45 1009.5
20260831064503 87 247 1.0 4.0 0.00 0.00 0.00 44 1009.6
20260831063817 85 244 2.0 4.0 0.00 0.00 0.00 44 1009.6
20260831062914 85 239 1.0 6.0 0.00 0.00 0.00 44 1009.6
20260831061804 84 257 1.0 4.0 0.00 0.00 0.00 45 1009.8
20260831061113 85 261 2.0 4.0 0.00 0.00 0.00 44 1009.7
20260831060004 84 234 2.0 4.0 0.00 0.00 0.00 46 1009.5
20260831055617 84 213 1.0 4.0 0.00 0.00 0.00 47 1009.8
20260831054503 83 275 1.0 4.0 0.00 0.00 0.00 49 1009.6
20260831053817 82 297 2.0 4.0 0.00 0.00 0.00 50 1009.7
20260831052703 81 264 1.0 4.0 0.00 0.00 0.00 52 1009.6
20260831051803 81 306 1.0 6.0 0.00 0.00 0.00 51 1009.5
20260831050904 80 273 2.0 4.0 0.00 0.00 0.00 51 1009.6
20260831050216 80 264 1.0 4.0 0.00 0.00 0.00 50 1009.4
20260831045404 79 244 2.0 4.0 0.00 0.00 0.00 49 1009.4
20260831044715 79 232 1.0 4.0 0.00 0.00 0.00 49 1009.4
20260831043813 79 256 0.0 2.0 0.00 0.00 0.00 49 1009.6
20260831042703 79 231 0.0 2.0 0.00 0.00 0.00 49 1009.4
20260831041803 78 241 1.0 2.0 0.00 0.00 0.00 49 1009.2
20260831040903 78 265 0.0 4.0 0.00 0.00 0.00 49 1009.1
20260831040217 78 274 1.0 4.0 0.00 0.00 0.00 49 1009.1
20260831035614 78 248 2.0 4.0 0.00 0.00 0.00 49 1009.2
20260831034504 79 262 2.0 4.0 0.00 0.00 0.00 48 1009.0
20260831033813 78 279 0.0 4.0 0.00 0.00 0.00 49 1009.3
20260831032704 79 290 2.0 4.0 0.00 0.00 0.00 49 1009.3
20260831032013 78 294 1.0 2.0 0.00 0.00 0.00 49 1009.0
20260831030903 78 314 2.0 8.0 0.00 0.00 0.00 49 1009.4
20260831030218 78 306 3.0 6.0 0.00 0.00 0.00 49 1009.4
20260831025403 79 294 2.0 4.0 0.00 0.00 0.00 49 1009.4
20260831024503 79 271 1.0 4.0 0.00 0.00 0.00 49 1009.1
20260831023814 79 175 1.0 2.0 0.00 0.00 0.00 49 1009.1
20260831022916 79 121 1.0 2.0 0.00 0.00 0.00 49 1009.2
20260831022014 79 235 0.0 2.0 0.00 0.00 0.00 48 1009.2
20260831021116 79 275 0.0 4.0 0.00 0.00 0.00 49 1009.0
20260831020213 79 254 1.0 4.0 0.00 0.00 0.00 49 1009.0
20260831015403 79 221 1.0 2.0 0.00 0.00 0.00 49 1009.3
20260831014717 79 262 1.0 4.0 0.00 0.00 0.00 49 1009.4
20260831013603 79 249 2.0 4.0 0.00 0.00 0.00 50 1009.2
20260831012917 79 284 1.0 7.0 0.00 0.00 0.00 50 1009.0
20260831012014 79 306 2.0 4.0 0.00 0.00 0.00 52 1009.2
20260831010903 79 315 1.0 4.0 0.00 0.00 0.00 52 1009.3
20260831010214 79 316 2.0 4.0 0.00 0.00 0.00 52 1009.4
20260831005404 79 303 0.0 4.0 0.00 0.00 0.00 52 1009.5
20260831004713 79 279 0.0 2.0 0.00 0.00 0.00 52 1009.6
20260831003815 79 251 0.0 2.0 0.00 0.00 0.00 52 1009.4
20260831002918 79 208 0.0 2.0 0.00 0.00 0.00 52 1009.1
20260831002015 80 239 1.0 2.0 0.00 0.00 0.00 51 1009.4
20260831001117 80 232 1.0 2.0 0.00 0.00 0.00 52 1009.4
20260831000215 80 247 0.0 2.0 0.00 0.00 0.00 51 1009.5
20260830235616 80 247 0.0 2.0 0.00 0.00 0.00 51 1009.6
20260830234503 80 247 0.0 2.0 0.00 0.00 0.00 51 1009.5
20260830233816 80 247 0.0 2.0 0.00 0.00 0.00 51 1009.5
20260830232704 80 249 0.0 4.0 0.00 0.00 0.00 51 1009.5
20260830231804 80 236 0.0 2.0 0.00 0.00 0.00 50 1009.6
20260830230904 80 258 1.0 4.0 0.00 0.00 0.00 50 1009.8
20260830230004 80 339 1.0 2.0 0.00 0.00 0.00 49 1009.6
20260830225403 80 286 1.0 2.0 0.00 0.00 0.00 49 1009.7
20260830224503 81 248 0.0 2.0 0.00 0.00 0.00 48 1009.6
20260830223603 81 260 0.0 2.0 0.00 0.00 0.00 48 1009.7
20260830222703 81 293 1.0 2.0 0.00 0.00 0.00 47 1009.8
20260830221803 81 301 0.0 2.0 0.00 0.00 0.00 48 1009.8
20260830221113 81 297 0.0 4.0 0.00 0.00 0.00 49 1009.9
20260830220216 81 292 1.0 2.0 0.00 0.00 0.00 50 1009.9
20260830215617 80 292 0.0 2.0 0.00 0.00 0.00 50 1010.0
20260830214715 81 273 0.0 4.0 0.00 0.00 0.00 52 1009.8
20260830213603 81 270 1.0 2.0 0.00 0.00 0.00 51 1009.9
20260830212703 81 270 0.0 2.0 0.00 0.00 0.00 50 1010.1
20260830212230 81 270 1.0 2.0 0.00 0.00 0.00 49 1010.2
20260830212017 81 270 0.0 2.0 0.00 0.00 0.00 49 1010.1
20260830210222 81 298 1.0 2.0 0.00 0.00 0.00 46 1009.7
20260830205403 82 319 0.0 4.0 0.00 0.00 0.00 45 1009.9
20260830204504 82 294 0.0 4.0 0.00 0.00 0.00 44 1009.9
20260830203818 82 291 1.0 4.0 0.00 0.00 0.00 44 1009.6
20260830202704 82 252 0.0 2.0 0.00 0.00 0.00 44 1009.7
20260830202017 82 240 0.0 4.0 0.00 0.00 0.00 44 1009.8
20260830200903 82 209 1.0 2.0 0.00 0.00 0.00 44 1009.6
20260830200217 82 190 0.0 2.0 0.00 0.00 0.00 44 1009.7
20260830195614 82 209 0.0 2.0 0.00 0.00 0.00 44 1009.6
20260830194716 82 259 0.0 2.0 0.00 0.00 0.00 44 1009.6
20260830193813 82 286 0.0 2.0 0.00 0.00 0.00 45 1009.6
20260830192916 82 323 0.0 2.0 0.00 0.00 0.00 47 1009.5
20260830191804 82 315 0.0 2.0 0.00 0.00 0.00 46 1009.6
20260830191115 82 315 0.0 2.0 0.00 0.00 0.00 46 1009.4
20260830190218 83 304 0.0 6.0 0.00 0.00 0.00 46 1009.6
20260830185614 83 316 1.0 4.0 0.00 0.00 0.00 47 1009.4
20260830184717 83 307 0.0 7.0 0.00 0.00 0.00 51 1009.5
20260830183814 82 269 0.0 4.0 0.00 0.00 0.00 60 1009.1
20260830182703 82 112 2.0 4.0 0.00 0.00 0.00 62 1009.0
20260830182014 82 99 1.0 4.0 0.00 0.00 0.00 62 1009.0
20260830181116 83 100 1.0 4.0 0.00 0.00 0.00 62 1009.1
20260830180213 83 106 2.0 4.0 0.00 0.00 0.00 60 1008.8
20260830175404 83 102 2.0 4.0 0.00 0.00 0.00 60 1008.8
20260830174717 83 108 2.0 4.0 0.00 0.00 0.00 60 1008.9
20260830173815 83 234 1.0 6.0 0.00 0.00 0.00 61 1008.8
20260830172917 82 254 2.0 7.0 0.00 0.00 0.00 62 1008.7
20260830172014 82 272 3.0 7.0 0.00 0.00 0.00 63 1008.4
20260830170903 83 249 2.0 7.0 0.00 0.00 0.00 61 1008.5
20260830170214 83 251 2.0 9.0 0.00 0.00 0.00 61 1008.5
20260830165616 83 261 2.0 9.0 0.00 0.00 0.00 59 1008.1
20260830164503 84 270 3.0 6.0 0.00 0.00 0.00 59 1008.3
20260830163603 84 246 4.0 7.0 0.00 0.00 0.00 58 1008.7
20260830162918 84 261 1.0 9.0 0.00 0.00 0.00 57 1008.6
20260830161804 85 266 4.0 8.0 0.00 0.00 0.00 57 1008.6
20260830160904 87 239 1.0 7.0 0.00 0.00 0.00 53 1008.6
20260830160004 87 290 3.0 7.0 0.00 0.00 0.00 50 1008.3
20260830155403 87 256 2.0 8.0 0.00 0.00 0.00 51 1008.4
20260830154713 87 110 3.0 8.0 0.00 0.00 0.00 51 1008.4
20260830153603 88 84 2.0 9.0 0.00 0.00 0.00 49 1008.4
20260830152703 88 228 2.0 6.0 0.00 0.00 0.00 48 1008.2
20260830151803 89 276 2.0 8.0 0.00 0.00 0.00 48 1008.1
20260830150904 89 259 2.0 8.0 0.00 0.00 0.00 47 1008.2
20260830150215 90 267 3.0 8.0 0.00 0.00 0.00 47 1008.1
20260830145617 89 259 5.0 8.0 0.00 0.00 0.00 47 1008.0
20260830144714 89 260 2.0 8.0 0.00 0.00 0.00 47 1008.0
20260830143816 89 258 5.0 8.0 0.00 0.00 0.00 46 1008.2
20260830142914 89 255 2.0 9.0 0.00 0.00 0.00 48 1008.2
20260830141803 90 167 2.0 7.0 0.00 0.00 0.00 46 1008.1
20260830140903 89 113 2.0 4.0 0.00 0.00 0.00 45 1008.0
20260830140216 90 247 2.0 9.0 0.00 0.00 0.00 43 1008.3
20260830135403 90 141 2.0 7.0 0.00 0.00 0.00 39 1008.2
20260830134504 91 115 2.0 6.0 0.00 0.00 0.00 39 1008.2
20260830133604 90 109 2.0 6.0 0.00 0.00 0.00 39 1008.3
20260830132914 89 106 3.0 7.0 0.00 0.00 0.00 41 1008.0
20260830132017 90 143 2.0 4.0 0.00 0.00 0.00 40 1008.2
20260830130903 90 196 2.0 6.0 0.00 0.00 0.00 38 1008.2
20260830130217 91 92 2.0 6.0 0.00 0.00 0.00 38 1008.0
20260830125613 91 95 2.0 8.0 0.00 0.00 0.00 37 1008.1
20260830124715 91 145 2.0 7.0 0.00 0.00 0.00 36 1008.0
20260830123603 92 167 2.0 7.0 0.00 0.00 0.00 35 1008.1
20260830122704 92 154 3.0 8.0 0.00 0.00 0.00 34 1008.4
20260830122017 91 104 4.0 8.0 0.00 0.00 0.00 35 1008.4
20260830121115 92 107 3.0 9.0 0.00 0.00 0.00 34 1008.4
20260830120217 92 103 2.0 8.0 0.00 0.00 0.00 35 1008.6